User: anonymous   Login
Location: Castelbiague
(43.0361°N, 0.9246°E)
Time: 21:41:24
(UTC+00:00)
Language:

FENGYUN 1C DEB - Orbit

View from above orbital plane
View from above orbital plane
View from above satellite
View from above satellite

Ground track
Ground track

The orbit data is extracted from the following two-line orbital elements,

1 37045U 99025EED 22012.56565979  .00001751  00000-0  10078-2 0  9995
2 37045  98.3370 295.7854 0130656 254.0599 104.6142 14.06196844716595
Epoch (UTC): 12 January 2022 13:34:33
Eccentricity: 0.0130656
inclination: 98.3370°
perigee height: 777 km
apogee height: 967 km
right ascension of ascending node: 295.7854°
argument of perigee: 254.0599°
revolutions per day: 14.06196844
mean anomaly at epoch: 104.6142°
orbit number at epoch: 71659

The dashed part of the orbit path shows where the satellite is in the earth's shadow,  

DLR